{"data":{"norad_id":51856,"intl_designator":"2022-022E","name":"STARLINK-3568","alt_names":[],"object_type":"PAYLOAD","status":"ACTIVE","operator":null,"country":"US","launch_date":"2022-03-03","launch_site_code":"AFETR","launch_vehicle":null,"mission":null,"orbit_class":"UNKNOWN","rcs_meters":null,"size_class":null,"mass_kg":null,"dimensions":null,"purposes":["comms"],"wikipedia_slug":null,"has_3d_model":false,"image_url":null,"decayed_at":null,"tle_current":{"epoch":"2026-05-24T22:56:49.568928Z","epoch_age_seconds":79666,"freshness":"FRESH","line1":"1 51856U 22022E   26144.95612927  .00001494  00000+0  11195-3 0  9998","line2":"2 51856  53.2147  36.7587 0001221  92.9716 267.1416 15.08831702234567","mean_motion":15.08831702,"eccentricity":0.0001221,"inclination_deg":53.2147,"raan_deg":36.7587,"arg_perigee_deg":92.9716,"mean_anomaly_deg":267.1416,"bstar":0.00011195,"rev_number":23456,"period_min":95.438079547987,"perigee_km":538.92407645427,"apogee_km":540.61342903909,"semimajor_km":6917.9057527467,"source":"CELESTRAK","updated_at":"2026-05-25T13:38:16.960096Z"}}}